カタログに戻る

KUIPER-00540

運用中通信VLEO
NORAD 69609·PAYLOAD·🇺🇸 United States

打ち上げ Jun 17, 2026 から Guiana Space Centre

Loading…

次のパス (今後24時間)

TLE

最新Source: CelesTrak SupGP

元期: Sep 14, 2026, 21:47 UTC

1 69609C 26140T   26257.90765046  .00002950  00000+0  76910-4 0  2571
2 69609  51.8812 325.0251 0004777 245.6443 152.8214 15.38230677    14

AllMySatでKUIPER-00540をリアルタイム追跡

Download on the App Store